Chadron, NE

6:48 PM MST on February 19, 2017 (GMT -0700)
Chadron Municipal

Weather History for KCDR - October, 2014

Change the Weather History Date:

Wednesday, October 1, 2014

  Actual Average Record
Temperature  
Mean Temperature 54 °F 54 °F  
Max Temperature 63 °F 70 °F 94 °F (1953)
Min Temperature 44 °F 37 °F 21 °F (1985)
Degree Days  
Heating Degree Days 11 12  
Month to date heating degree days 11 12  
Since 1 July heating degree days 175 223  
Cooling Degree Days 0 0  
Month to date cooling degree days 0 0  
Year to date cooling degree days 647 710  
Growing Degree Days 8 (Base 50)    
Moisture  
Dew Point 48 °F    
Average Humidity 75    
Maximum Humidity 93    
Minimum Humidity 56    
Precipitation  
Precipitation T in 0.06 in 0.85 in (1927)
Month to date precipitation T 0.06  
Year to date precipitation 18.22 15.66  
Sea Level Pressure  
Sea Level Pressure 29.84 in    
Wind  
Wind Speed 7 mph (West)    
Max Wind Speed 20 mph    
Max Gust Speed 24 mph    
Visibility 10 miles    
Events Rain    
T = Trace of Precipitation, MM = Missing Value Source: NWS Daily Summary

Daily Weather History Graph

Daily Weather History Graph

Search for Another Location

Airport or City:

Trip Planner

Search our weather history database for the weather conditions in past years. The results will help you decide how hot, cold, wet, or windy it might be!

Date:

Astronomy

Oct. 01, 2014 Rise Set
Actual Time 6:49 AM MDT 6:33 PM MDT
Civil Twilight 6:21 AM MDT 7:01 PM MDT
Nautical Twilight 5:48 AM MDT 7:34 PM MDT
Astronomical Twilight 5:15 AM MDT 8:07 PM MDT
Moon 1:58 PM MDT (10/1) No Moon Set
Length of Visible Light 12h 40m
Length of Day
11h 43m
Waxing Crescent, 49% of the Moon is Illuminated
Oct 1
Waxing Crescent
Oct 1
First Quarter
Oct 8
Full
Oct 15
Last Quarter
Oct 23
New

Hourly Weather History & Observations

Time (MDT) Temp. Dew Point Humidity Pressure Visibility Wind Dir Wind Speed Gust Speed Precip Events Conditions
12:53 AM 57.0 °F 55.9 °F 96% 29.59 in 6.0 mi East 11.5 mph - 0.03 in Rain Light Rain
1:00 AM 57.0 °F 55.9 °F 96% 29.61 in 8.0 mi SSE 6.9 mph - 0.00 in Rain Light Rain
1:15 AM 54.0 °F 53.1 °F 97% 29.60 in 6.0 mi SSW 5.8 mph - 0.02 in Rain Light Rain
1:53 AM 54.0 °F 53.1 °F 97% 29.56 in 8.0 mi Calm Calm - 0.05 in Rain Light Rain
2:53 AM 48.9 °F 46.9 °F 93% 29.76 in 10.0 mi WSW 3.5 mph - N/A   Clear
3:53 AM 46.9 °F 45.0 °F 93% 29.78 in 10.0 mi WSW 6.9 mph - N/A   Clear
4:53 AM 48.0 °F 44.1 °F 86% 29.79 in 10.0 mi WSW 9.2 mph - N/A   Clear
6:53 AM 46.9 °F 43.0 °F 86% 29.82 in 10.0 mi West 4.6 mph - N/A   Clear
7:53 AM 50.0 °F 46.0 °F 86% 29.85 in 10.0 mi WSW 6.9 mph - N/A   Clear
8:53 AM 54.0 °F 48.9 °F 83% 29.55 in 10.0 mi West 26.5 mph 35.7 mph 0.01 in   Overcast
9:53 AM 57.0 °F 48.0 °F 72% 29.87 in 10.0 mi West 12.7 mph - N/A   Overcast
10:53 AM 57.9 °F 46.9 °F 67% 29.86 in 10.0 mi WNW 9.2 mph - N/A   Overcast
11:53 AM 59.0 °F 48.9 °F 69% 29.62 in 10.0 mi West 26.5 mph 35.7 mph N/A   Scattered Clouds
12:53 PM 62.1 °F 46.9 °F 58% 29.85 in 10.0 mi WNW 9.2 mph - N/A   Overcast
1:53 PM 64.9 °F 48.0 °F 54% 29.62 in 10.0 mi West 25.3 mph 33.4 mph N/A   Mostly Cloudy
2:53 PM 69.1 °F 48.0 °F 47% 29.60 in 10.0 mi West 24.2 mph 31.1 mph N/A   Scattered Clouds
3:53 PM 59.0 °F 45.0 °F 60% 29.88 in 10.0 mi WNW 9.2 mph - N/A   Overcast
4:53 PM 57.0 °F 44.1 °F 62% 29.91 in 10.0 mi NW 12.7 mph 21.9 mph N/A   Overcast
5:53 PM 53.1 °F 46.0 °F 77% 29.95 in 10.0 mi NNE 6.9 mph - N/A   Overcast
6:37 PM 52.0 °F 46.9 °F 83% 29.96 in 10.0 mi NNE 6.9 mph - 0.00 in Rain Light Rain
6:53 PM 52.0 °F 46.9 °F 83% 29.98 in 10.0 mi NE 4.6 mph - 0.00 in   Overcast
7:53 PM 51.1 °F 48.0 °F 89% 29.99 in 10.0 mi NNE 3.5 mph - N/A   Overcast
8:25 PM 51.1 °F 48.0 °F 89% 29.99 in 10.0 mi NE 4.6 mph - N/A   Overcast
8:36 PM 50.0 °F 46.9 °F 89% 29.99 in 10.0 mi ENE 6.9 mph - N/A   Overcast
8:53 PM 50.0 °F 46.9 °F 89% 30.00 in 10.0 mi East 5.8 mph - N/A   Overcast
9:26 PM 50.0 °F 46.9 °F 89% 30.01 in 10.0 mi SSE 3.5 mph - N/A   Overcast
9:53 PM 50.0 °F 46.9 °F 89% 30.01 in 10.0 mi South 3.5 mph - N/A   Overcast
10:53 PM 48.9 °F 46.9 °F 93% 30.02 in 10.0 mi Calm Calm - N/A   Overcast
11:12 PM 48.0 °F 46.0 °F 93% 30.02 in 10.0 mi WSW 3.5 mph - N/A   Overcast
11:40 PM 48.0 °F 46.0 °F 93% 30.02 in 10.0 mi West 5.8 mph - N/A   Overcast
11:53 PM 48.0 °F 46.0 °F 93% 30.01 in 10.0 mi WSW 4.6 mph - N/A   Overcast